Time,TemperatureF,DewpointF,PressureIn,WindDirection,WindDirectionDegrees,WindSpeedMPH,WindSpeedGustMPH,Humidity,HourlyPrecipIn,Conditions,Clouds,dailyrainin,SoftwareType,DateUTC
2013-06-19 00:10:00,82.0,-99.9,-100.00,East,91,4.0,5.0,-999,-99.99,,,-99.99,,2013-06-19 06:10:00,
2013-06-19 00:52:00,82.0,-99.9,-100.00,East,91,4.0,5.0,-999,-99.99,,,-99.99,,2013-06-19 06:52:00,
2013-06-19 01:01:00,82.0,-99.9,-100.00,East,91,4.0,5.0,-999,-99.99,,,-99.99,,2013-06-19 07:01:00,
2013-06-19 01:23:00,81.0,-99.9,-100.00,East,100,4.0,5.0,-999,-99.99,,,-99.99,,2013-06-19 07:23:00,
2013-06-19 01:33:00,81.0,-99.9,-100.00,East,100,4.0,5.0,-999,-99.99,,,-99.99,,2013-06-19 07:33:00,
2013-06-19 03:34:00,77.0,-99.9,-100.00,East,79,5.0,6.0,-999,-99.99,,,-99.99,,2013-06-19 09:34:00,
2013-06-19 03:44:00,77.0,-99.9,-100.00,East,79,5.0,6.0,-999,-99.99,,,-99.99,,2013-06-19 09:44:00,
2013-06-19 03:53:00,76.0,-99.9,-100.00,East,89,4.0,5.0,-999,-99.99,,,-99.99,,2013-06-19 09:53:00,
2013-06-19 04:02:00,76.0,-99.9,-100.00,ESE,103,3.0,5.0,-999,-99.99,,,-99.99,,2013-06-19 10:02:00,
2013-06-19 04:12:00,76.0,-99.9,-100.00,ESE,103,3.0,5.0,-999,-99.99,,,-99.99,,2013-06-19 10:12:00,
2013-06-19 04:22:00,76.0,-99.9,-100.00,ESE,103,3.0,5.0,-999,-99.99,,,-99.99,,2013-06-19 10:22:00,
2013-06-19 06:22:00,71.0,-99.9,-100.00,ESE,105,5.0,7.0,-999,-99.99,,,-99.99,,2013-06-19 12:22:00,
2013-06-19 06:34:00,71.0,-99.9,-100.00,ESE,105,5.0,7.0,-999,-99.99,,,-99.99,,2013-06-19 12:34:00,
2013-06-19 06:44:00,70.0,-99.9,-100.00,SE,129,1.0,6.0,-999,-99.99,,,-99.99,,2013-06-19 12:44:00,
2013-06-19 06:53:00,70.0,-99.9,-100.00,SE,129,1.0,6.0,-999,-99.99,,,-99.99,,2013-06-19 12:53:00,
2013-06-19 07:54:00,72.0,-99.9,-100.00,East,92,6.0,6.0,-999,-99.99,,,-99.99,,2013-06-19 13:54:00,
2013-06-19 08:02:00,72.0,-99.9,-100.00,East,92,6.0,6.0,-999,-99.99,,,-99.99,,2013-06-19 14:02:00,
2013-06-19 09:02:00,81.0,-99.9,-100.00,East,84,6.0,6.0,-999,-99.99,,,-99.99,,2013-06-19 15:02:00,
2013-06-19 09:10:00,82.0,-99.9,-100.00,SSE,149,3.0,5.0,-999,-99.99,,,-99.99,,2013-06-19 15:10:00,
2013-06-19 09:11:00,81.0,-99.9,-100.00,East,84,6.0,6.0,-999,-99.99,,,-99.99,,2013-06-19 15:11:00,
2013-06-19 09:22:00,81.0,-99.9,-100.00,East,84,6.0,6.0,-999,-99.99,,,-99.99,,2013-06-19 15:22:00,
2013-06-19 09:33:00,83.0,-99.9,-100.00,SE,146,4.0,5.0,-999,-99.99,,,-99.99,,2013-06-19 15:33:00,
2013-06-19 09:43:00,83.0,-99.9,-100.00,SE,146,4.0,5.0,-999,-99.99,,,-99.99,,2013-06-19 15:43:00,
2013-06-19 09:53:00,82.0,-99.9,-100.00,SSE,149,3.0,5.0,-999,-99.99,,,-99.99,,2013-06-19 15:53:00,
2013-06-19 10:02:00,82.0,-99.9,-100.00,SSE,149,3.0,5.0,-999,-99.99,,,-99.99,,2013-06-19 16:02:00,
2013-06-19 10:34:00,86.0,-99.9,-100.00,SE,132,2.0,6.0,-999,-99.99,,,-99.99,,2013-06-19 16:34:00,
2013-06-19 10:43:00,86.0,-99.9,-100.00,SE,132,2.0,6.0,-999,-99.99,,,-99.99,,2013-06-19 16:43:00,
2013-06-19 10:53:00,88.0,-99.9,-100.00,ESE,122,2.0,4.0,-999,-99.99,,,-99.99,,2013-06-19 16:53:00,
2013-06-19 11:02:00,88.0,-99.9,-100.00,ESE,122,2.0,4.0,-999,-99.99,,,-99.99,,2013-06-19 17:02:00,
2013-06-19 11:12:00,88.0,-99.9,-100.00,ESE,122,2.0,4.0,-999,-99.99,,,-99.99,,2013-06-19 17:12:00,
2013-06-19 12:24:00,92.0,-99.9,-100.00,South,174,2.0,7.0,-999,-99.99,,,-99.99,,2013-06-19 18:24:00,
2013-06-19 12:33:00,92.0,-99.9,-100.00,South,174,2.0,7.0,-999,-99.99,,,-99.99,,2013-06-19 18:33:00,
2013-06-19 15:22:00,96.0,-99.9,-100.00,SSW,206,5.0,6.0,-999,-99.99,,,-99.99,,2013-06-19 21:22:00,
2013-06-19 15:33:00,96.0,-99.9,-100.00,SSW,206,5.0,6.0,-999,-99.99,,,-99.99,,2013-06-19 21:33:00,
2013-06-19 16:10:00,99.0,-99.9,-100.00,SE,146,6.0,7.0,-999,-99.99,,,-99.99,,2013-06-19 22:10:00,
2013-06-19 16:54:00,99.0,-99.9,-100.00,SE,146,6.0,7.0,-999,-99.99,,,-99.99,,2013-06-19 22:54:00,
2013-06-19 17:02:00,99.0,-99.9,-100.00,SE,146,6.0,7.0,-999,-99.99,,,-99.99,,2013-06-19 23:02:00,
2013-06-19 18:52:00,98.0,-99.9,-100.00,SSW,203,3.0,8.0,-999,-99.99,,,-99.99,,2013-06-20 00:52:00,
2013-06-19 19:02:00,98.0,-99.9,-100.00,SSW,213,5.0,8.0,-999,-99.99,,,-99.99,,2013-06-20 01:02:00,
2013-06-19 19:12:00,98.0,-99.9,-100.00,SSW,213,5.0,8.0,-999,-99.99,,,-99.99,,2013-06-20 01:12:00,
2013-06-19 19:22:00,98.0,-99.9,-100.00,SSW,213,5.0,8.0,-999,-99.99,,,-99.99,,2013-06-20 01:22:00,
2013-06-19 19:50:00,95.0,-99.9,-100.00,WSW,238,3.0,3.0,-999,-99.99,,,-99.99,,2013-06-20 01:50:00,
2013-06-19 20:34:00,95.0,-99.9,-100.00,WSW,238,3.0,3.0,-999,-99.99,,,-99.99,,2013-06-20 02:34:00,
2013-06-19 20:43:00,95.0,-99.9,-100.00,WSW,238,3.0,3.0,-999,-99.99,,,-99.99,,2013-06-20 02:43:00,
2013-06-19 21:50:00,85.0,-99.9,-100.00,ESE,123,0.0,4.0,-999,-99.99,,,-99.99,,2013-06-20 03:50:00,
2013-06-19 22:20:00,83.0,-99.9,-100.00,SE,127,2.0,2.0,-999,-99.99,,,-99.99,,2013-06-20 04:20:00,
2013-06-19 22:34:00,85.0,-99.9,-100.00,ESE,123,0.0,4.0,-999,-99.99,,,-99.99,,2013-06-20 04:34:00,
2013-06-19 22:44:00,85.0,-99.9,-100.00,ESE,123,0.0,4.0,-999,-99.99,,,-99.99,,2013-06-20 04:44:00,
2013-06-19 23:02:00,83.0,-99.9,-100.00,SE,127,2.0,2.0,-999,-99.99,,,-99.99,,2013-06-20 05:02:00,
2013-06-19 23:12:00,83.0,-99.9,-100.00,SE,127,2.0,2.0,-999,-99.99,,,-99.99,,2013-06-20 05:12:00,
2013-06-19 23:53:00,87.0,-99.9,-100.00,ESE,111,6.0,6.0,-999,-99.99,,,-99.99,,2013-06-20 05:53:00,